Location: Cotdoussan
(43.0366°N, 0.0068°E)
Time: 08:21:51
(UTC+00:00)

MOS 1 - Visible Passes

Search period start: 09 June 2026 00:00
Search period end: 19 June 2026 00:00
Orbit: 877 x 888 km, 98.8° (Epoch: 8 June)

Date Brightness Start Highest point End Pass type
(mag) Time Alt. Az. Time Alt. Az. Time Alt. Az.
9 Jun 6.6 21:37:08 10° SW 21:40:54 18° W 21:44:41 10° NW visible
10 Jun 6.5 21:34:30 10° SW 21:38:24 19° W 21:42:21 10° NW visible
11 Jun 6.5 21:31:51 10° SW 21:35:54 20° W 21:39:58 10° NW visible
12 Jun 6.4 21:29:15 10° SW 21:33:25 21° W 21:37:36 10° NW visible
13 Jun 6.4 21:26:37 10° SW 21:30:55 22° W 21:35:14 10° NW visible
14 Jun 6.3 21:24:02 10° SW 21:28:25 23° W 21:32:51 10° NW visible
15 Jun 6.2 21:21:26 10° SW 21:25:56 24° W 21:30:27 10° NW visible
16 Jun 6.2 21:18:51 10° SSW 21:23:26 25° W 21:28:04 10° NW visible
17 Jun 6.1 21:16:16 10° SSW 21:20:57 26° W 21:25:40 10° NW visible
18 Jun 6.1 21:13:41 10° SSW 21:18:28 27° W 21:23:16 10° NW visible
